Location: Big Prairie
(40.6673°N, 82.0952°W)
Time: 03:22:30
(UTC+00:00)

Meteor 1-26 Rocket - Pass Details

Date: 30 June 2022
Orbit: 810 x 924 km, 81.3° (Epoch: 13 August)

Event Time Altitude Azimuth Distance (km) Brightness Sun altitude
Rises 06:12:37 0° 359° (N) 3,465 8.7 -25.5°
Reaches altitude 10° 06:15:17 10° 9° (N) 2,541 7.7 -25.4°
Maximum altitude 06:20:30 34° 73° (ENE) 1,445 5.6 -25.2°
Enters shadow 06:23:31 21° 121° (ESE) 1,900 5.8 -25.1°
